Temperature
20 20 20 19 19 19 19 19 19 19 19 19 19 18 18 18 19 19 19 19 19 19 19 19 19 18 18 18 18 18 18 18 18 18 18 17 17 17 17 17 16 16 16
20 20 20 19 19 19 19 19 19 19 19 18 18 18 19 19 19 19 19 19 19 19 19 19 19 18 18 18 18 18 18 18 18 18 18 17 17 17 17 17 16 16 16
20 20 20 20 19 19 19 19 19 19 19 18 18 18 19 19 19 19 19 19 19 19 19 19 19 19 18 18 18 18 18 18 18 18 18 18 17 17 17 17 17 16 16
19 19 19 20 20 19 19 19 19 18 18 18 18 18 18 18 19 19 19 19 19 19 19 19 19 19 18 18 18 18 18 18 18 18 18 18 17 17 17 17 17 16 16
19 19 19 19 19 19 19 19 19 18 18 18 18 18 18 19 19 19 19 19 19 19 19 19 19 19 19 18 18 18 18 18 18 18 18 18 17 17 17 17 17 17 17
19 19 19 19 19 19 19 19 18 18 18 19 19 18 18 19 19 19 19 19 19 19 19 19 19 19 19 19 18 18 18 18 18 18 18 18 18 17 17 17 17 17 17
19 19 19 19 19 18 18 18 18 18 18 18 18 18 18 18 18 19 19 19 19 20 20 19 19 19 19 19 19 18 18 18 18 18 18 18 18 18 17 17 17 17 17
19 19 19 19 18 18 18 18 18 18 18 18 18 17 17 18 18 18 19 19 19 19 20 20 19 19 18 19 19 19 19 18 18 18 18 18 18 18 17 17 17 17 17
18 18 18 18 18 18 18 18 18 18 18 18 17 17 16 16 17 18 18 18 18 19 19 19 19 18 18 18 18 18 18 18 18 18 17 17 17 17 17 17 17 17 17
17 18 18 18 18 18 18 18 18 18 17 17 17 17 16 16 16 16 17 17 17 18 18 18 18 18 18 18 18 18 18 18 18 17 17 17 17 17 17 17 17 17 16
17 17 17 17 17 17 17 17 17 17 17 17 16 16 16 15 15 15 15 16 16 17 17 17 17 17 17 18 18 17 17 17 17 17 17 17 17 17 17 17 17 16 16
17 17 16 16 16 16 16 17 17 16 16 16 16 15 15 15 15 14 14 15 15 16 16 16 17 17 17 17 17 17 17 17 17 17 17 17 17 16 17 17 17 16 16
16 16 16 16 16 16 16 16 16 16 16 15 15 14 14 14 14 14 14 14 15 15 16 16 16 16 16 16 16 16 16 16 16 16 16 16 16 16 16 16 16 16 16
15 15 15 15 15 15 15 15 15 15 15 15 14 14 14 14 14 14 14 14 14 15 15 15 15 15 15 15 15 15 16 16 16 16 16 16 16 16 16 16 16 16 16
14 14 14 15 15 15 15 15 15 15 14 14 14 14 14 14 14 14 14 14 14 15 14 14 14 14 14 15 15 15 15 15 15 15 15 15 15 15 15 15 16 15 15
14 14 14 14 14 14 14 14 14 14 14 14 14 14 14 14 14 14 14 14 14 15 14 14 14 14 14 14 14 15 15 15 15 15 15 15 15 15 15 15 15 15 15
13 13 13 13 13 13 14 14 14 14 14 14 13 13 14 14 14 14 14 14 14 14 14 13 13 13 14 14 14 14 14 14 14 14 14 14 14 14 14 14 14 14 14
12 12 12 12 13 13 13 13 13 13 13 13 13 13 13 13 13 13 14 14 14 14 14 13 13 13 13 13 13 13 13 13 14 14 13 13 13 13 13 13 13 13 13
11 12 12 12 12 12 13 13 13 13 13 13 13 13 13 13 13 13 13 14 13 13 13 13 12 13 13 13 13 13 13 13 13 13 13 12 12 12 12 12 12 12 12
11 11 12 12 12 12 12 12 12 12 12 12 12 12 12 13 13 13 13 13 13 13 13 13 13 13 12 12 13 13 13 12 12 12 12 12 12 12 12 12 12 12 12
11 11 11 11 11 11 11 11 11 11 11 12 12 12 12 12 12 13 13 13 13 13 13 13 13 12 12 12 12 12 12 12 12 12 12 12 12 12 11 11 11 11 11
11 11 11 11 11 11 11 11 11 11 11 11 11 12 12 12 12 12 12 12 12 12 12 12 12 12 11 11 11 11 11 11 11 11 11 11 11 11 11 11 11 11 11
11 11 11 11 11 10 10 11 11 11 11 11 11 11 11 11 12 12 12 12 12 12 12 11 11 11 11 11 11 11 11 11 10 10 11 11 11 11 11 11 11 11 11
11 11 11 11 11 11 11 11 11 11 11 11 11 11 11 11 11 11 11 11 11 11 11 11 11 11 10 10 10 10 10 10 10 10 10 10 11 11 11 10 10 10 10
11 11 11 11 11 11 11 11 11 11 11 11 11 11 11 11 11 11 11 11 11 11 11 11 11 10 10 10 10 10 10 10 10 10 10 9 10 10 10 10 10 10 10
11 11 11 11 11 11 11 11 11 11 11 11 11 11 11 11 11 11 11 11 11 11 11 10 10 10 10 10 10 9 9 9 9 9 9 9 9 9 10 9 9 9 10
Wind_Speed
10 10 8 9 11 12 10 8 9 10 11 11 13 13 12 14 15 16 15 21 24 24 24 24 26 26 26 25 24 23 22 22 22 22 23 24 24 24 25 24 24 23 22
10 11 11 9 9 11 12 10 11 11 11 10 12 13 12 12 13 14 16 18 22 23 24 25 27 27 26 25 25 23 22 22 22 22 23 23 24 24 25 25 24 23 23
14 12 12 11 10 11 11 9 9 9 10 10 11 12 10 8 9 10 13 13 14 20 24 26 27 27 27 26 26 25 23 23 22 22 23 23 23 24 24 24 23 23 23
18 12 12 11 9 8 7 8 7 7 8 7 7 7 7 7 9 8 9 11 12 13 18 25 27 28 28 28 27 26 25 24 23 23 23 23 23 23 23 23 22 22 23
16 11 11 10 7 7 7 8 6 5 6 6 6 7 7 7 8 9 9 9 11 13 13 18 26 29 30 29 28 27 26 25 24 24 23 23 23 22 22 22 22 22 23
10 8 9 9 8 7 7 5 5 5 5 5 7 8 7 8 7 8 10 9 8 12 13 15 16 20 27 29 28 27 25 24 24 24 24 23 23 22 22 22 22 22 22
7 6 7 7 7 7 8 8 6 7 6 4 4 6 7 8 10 10 9 8 9 9 10 11 12 13 13 21 24 25 26 25 24 25 24 24 23 23 22 22 22 22 22
7 7 7 7 7 7 9 10 8 6 6 5 5 4 5 5 7 10 7 6 6 5 6 7 7 9 10 10 14 23 26 26 25 25 25 24 24 23 23 23 23 23 23
8 7 8 8 8 8 9 10 9 9 8 6 7 6 5 6 4 4 4 3 3 2 2 3 2 4 8 8 10 15 21 24 25 25 24 24 24 24 24 24 23 23 23
8 8 7 7 7 7 9 9 9 8 8 8 5 6 6 5 4 4 3 2 3 2 2 2 1 1 3 4 7 10 13 16 17 21 22 22 23 23 23 24 25 25 24
7 7 7 6 6 6 7 7 6 6 6 6 5 4 5 5 6 5 4 3 3 2 3 2 1 1 1 4 4 4 5 7 8 10 13 16 18 21 22 23 25 25 25
7 7 6 5 5 5 5 5 5 6 5 5 4 4 4 3 3 4 4 3 3 3 2 1 1 2 2 4 4 4 3 2 3 4 5 6 10 13 16 18 21 23 24
7 8 6 5 5 5 5 4 4 4 4 4 4 3 3 3 2 2 3 2 2 2 2 3 3 2 2 3 3 4 3 3 2 1 2 2 4 6 8 9 11 13 16
8 8 8 6 6 5 5 5 4 4 4 4 4 3 3 2 2 2 2 2 0 1 4 3 3 3 2 2 3 4 2 2 1 1 1 1 2 2 3 4 5 6 8
8 8 7 7 6 5 6 5 4 5 4 4 4 4 3 2 1 1 2 2 3 2 2 3 3 3 2 3 4 4 3 2 1 1 1 1 1 1 1 2 3 4 6
7 8 7 6 5 4 5 5 4 4 4 4 3 3 2 1 1 0 1 1 2 3 3 2 3 3 4 4 7 6 4 5 4 2 0 0 0 0 1 2 4 6 7
7 7 6 5 3 2 2 4 4 4 4 3 3 4 4 3 2 1 2 2 2 4 5 3 4 4 6 6 5 6 7 6 6 6 3 1 1 2 3 4 6 7 9
7 7 6 5 3 1 1 3 4 5 6 6 5 6 5 5 4 3 3 4 4 4 6 5 5 6 7 5 5 6 5 6 6 8 6 3 2 3 4 6 7 8 10
6 7 6 5 5 4 5 6 7 8 8 7 7 7 6 6 6 5 6 6 6 7 7 6 5 5 5 4 5 5 5 5 5 6 6 6 5 5 5 6 7 9 10
5 6 6 6 6 6 8 10 10 10 10 9 8 7 6 7 7 7 7 8 9 10 8 7 5 5 4 3 4 5 5 4 4 5 5 5 6 6 6 6 7 9 11
4 4 6 7 7 7 9 11 10 11 10 10 9 8 8 10 10 8 8 9 10 8 7 7 5 5 5 5 4 4 4 4 3 3 4 3 3 4 4 6 8 11 12
2 3 4 6 7 7 10 11 10 9 9 10 9 8 9 10 12 14 15 13 11 9 7 6 4 5 4 4 4 4 4 5 4 5 4 4 3 3 4 4 8 12 13
1 2 3 5 6 7 11 13 13 10 9 8 8 7 8 8 9 9 12 14 13 12 9 6 5 3 2 2 4 6 5 3 2 5 4 4 4 4 4 5 9 11 13
3 3 4 5 6 7 11 13 14 10 9 8 8 8 8 8 7 9 9 9 9 8 7 5 3 2 1 1 1 1 1 2 3 3 4 3 5 4 4 4 9 11 12
5 5 5 6 7 6 11 13 13 9 9 8 7 7 9 9 11 13 11 9 9 7 8 11 10 8 8 7 4 5 5 5 4 4 3 3 4 4 4 4 6 11 12
6 7 6 6 7 6 9 14 13 8 8 7 6 7 10 11 12 13 10 9 9 6 7 9 9 10 8 8 9 5 3 3 2 3 4 4 4 5 5 4 4 6 8
Wind_Direction
227 228 230 231 231 226 222 221 225 231 234 238 241 241 244 244 243 239 240 243 242 239 235 228 225 225 227 228 229 228 228 229 229 227 226 226 227 226 224 222 221 219 218
227 230 234 230 227 223 221 219 222 227 231 234 239 239 240 241 241 239 239 243 240 235 230 226 226 227 230 231 230 229 229 229 228 228 227 227 227 227 226 224 222 220 218
227 228 232 233 229 223 217 218 222 224 229 231 237 240 241 239 240 240 241 240 238 234 230 229 230 231 232 234 233 230 228 228 227 227 227 227 226 226 225 223 221 220 219
229 228 232 235 228 220 215 216 216 217 226 227 234 245 250 252 252 252 251 246 238 236 233 234 235 237 238 238 238 235 230 227 226 225 226 226 225 223 222 221 220 219 219
235 230 233 236 227 222 221 226 222 215 227 232 239 248 249 251 254 261 260 255 248 241 235 235 236 238 240 242 241 240 236 230 225 224 224 224 223 221 220 219 218 218 218
255 238 239 238 228 229 232 228 228 229 229 232 250 257 250 247 249 251 256 259 255 252 245 239 237 241 242 243 240 238 238 237 230 224 222 221 221 220 219 218 218 218 218
261 253 249 241 232 235 240 236 233 238 239 225 242 264 262 250 248 251 250 254 261 262 253 242 234 235 241 240 234 233 236 239 236 227 221 219 219 219 218 217 217 217 217
261 258 240 239 236 236 242 239 227 233 237 209 213 241 276 285 256 247 242 244 263 277 272 257 238 232 231 227 228 230 234 238 238 231 223 218 217 217 216 216 216 216 217
280 266 250 242 237 231 239 238 229 231 241 232 211 211 228 244 271 276 245 229 256 291 307 297 262 238 228 219 225 232 235 237 238 237 229 220 217 216 216 216 216 217 217
290 281 266 251 240 232 235 239 232 228 232 241 227 219 223 215 227 276 290 265 277 288 303 309 322 265 213 198 210 222 234 238 240 244 241 231 221 217 217 219 220 220 218
291 283 271 258 247 239 238 238 235 226 222 227 222 213 225 229 221 228 264 290 311 292 288 277 230 188 139 132 138 188 213 238 246 251 251 243 232 224 221 223 226 226 224
297 288 271 254 246 239 235 232 226 218 216 212 208 198 198 204 207 212 229 250 276 284 304 337 108 132 122 115 120 131 154 187 225 236 241 243 238 231 226 227 231 233 232
303 294 280 259 248 236 226 214 200 198 190 184 187 193 193 198 187 195 204 229 256 297 10 35 41 88 109 103 107 120 128 138 151 186 207 226 238 238 233 229 234 239 240
297 293 284 265 247 231 218 200 193 191 182 185 187 179 181 196 199 195 189 184 190 15 41 32 24 42 76 81 78 89 81 90 84 95 123 153 181 205 217 223 237 247 250
303 302 291 271 252 230 209 191 194 194 183 187 188 186 187 191 190 214 210 184 166 130 60 15 33 18 37 65 57 68 55 38 41 48 85 117 137 158 182 218 240 254 261
310 307 302 285 260 238 210 189 187 188 176 179 178 166 147 130 120 231 193 169 152 138 109 37 30 19 30 52 50 52 40 39 34 25 20 65 47 354 280 279 280 279 279
326 326 319 310 290 257 208 181 178 167 158 147 140 135 123 112 98 90 100 93 86 108 111 63 30 25 41 41 29 35 41 43 34 37 43 31 355 323 307 299 296 293 288
331 332 338 345 345 16 108 148 150 136 130 122 116 110 105 103 88 82 91 92 89 96 111 97 41 29 35 32 34 37 33 45 44 44 46 35 358 328 310 300 296 295 293
336 347 357 12 30 53 71 88 102 103 100 100 101 101 98 96 82 74 77 81 83 85 84 91 60 32 30 23 26 27 34 27 31 37 40 31 10 347 326 309 305 303 301
341 355 12 22 43 72 84 87 91 92 89 84 83 85 85 88 90 85 83 85 91 87 81 79 63 36 24 359 26 18 12 9 15 15 16 15 12 6 352 340 329 321 316
349 2 29 38 49 74 91 96 95 97 94 87 76 72 73 79 80 83 92 93 94 92 84 78 66 49 29 20 5 348 8 356 1 359 347 349 349 348 346 348 344 335 328
340 14 49 60 63 85 102 103 105 99 96 92 84 71 67 62 71 74 77 80 91 100 98 87 72 64 35 14 1 14 22 29 2 339 352 332 340 328 317 322 337 340 336
224 99 88 86 83 99 110 105 102 102 94 89 83 75 74 64 69 75 70 66 65 72 90 108 93 79 56 13 26 27 27 49 12 322 359 335 326 315 304 309 329 339 339
175 150 132 117 104 108 116 114 108 100 95 90 89 90 86 68 76 89 79 65 53 46 55 73 102 100 93 114 103 77 347 15 337 335 27 357 320 312 309 314 329 336 339
170 157 145 133 116 108 120 124 114 104 97 85 80 82 89 80 84 90 84 73 54 29 39 58 68 69 63 68 79 55 37 43 6 323 355 10 320 316 316 318 329 340 338
166 153 147 145 131 118 121 128 121 116 107 97 80 72 82 93 89 88 88 84 69 41 47 53 46 36 37 40 50 66 87 77 38 339 327 357 333 343 335 317 325 338 341
Height
1530 1529 1529 1528 1528 1528 1528 1528 1528 1528 1528 1528 1528 1528 1528 1528 1527 1527 1527 1527 1528 1528 1529 1529 1529 1530 1530 1531 1531 1531 1531 1532 1533 1534 1536 1538 1539 1541 1542 1544 1545 1546 1548
1526 1526 1525 1524 1524 1524 1524 1524 1524 1524 1524 1524 1524 1524 1524 1523 1523 1523 1523 1523 1522 1523 1523 1524 1524 1525 1526 1526 1526 1527 1527 1528 1528 1530 1531 1532 1534 1536 1538 1539 1541 1542 1544
1522 1521 1521 1520 1520 1520 1520 1519 1519 1519 1519 1519 1519 1519 1519 1519 1519 1518 1518 1518 1517 1517 1518 1519 1519 1520 1520 1521 1522 1522 1522 1523 1524 1525 1526 1528 1529 1531 1533 1535 1536 1538 1540
1517 1516 1516 1515 1515 1516 1515 1514 1514 1514 1514 1514 1514 1514 1515 1515 1514 1514 1513 1512 1512 1511 1512 1512 1513 1515 1515 1516 1516 1517 1518 1518 1519 1520 1521 1523 1524 1526 1528 1530 1532 1534 1535
1511 1510 1509 1509 1510 1510 1510 1510 1509 1509 1509 1508 1508 1508 1509 1508 1508 1508 1507 1507 1507 1506 1506 1506 1507 1509 1510 1510 1511 1511 1512 1513 1514 1515 1516 1517 1519 1522 1524 1526 1527 1529 1531
1506 1505 1504 1503 1503 1503 1503 1503 1503 1503 1502 1502 1502 1502 1502 1502 1502 1501 1501 1501 1501 1500 1500 1500 1500 1502 1503 1504 1505 1505 1506 1507 1508 1510 1511 1512 1514 1517 1519 1521 1523 1525 1526
1500 1499 1498 1498 1498 1497 1496 1497 1497 1497 1496 1496 1496 1494 1494 1495 1494 1493 1494 1494 1494 1493 1493 1492 1493 1495 1496 1497 1498 1498 1499 1501 1502 1504 1506 1507 1509 1511 1514 1516 1518 1520 1522
1493 1492 1491 1491 1490 1490 1490 1490 1490 1489 1488 1490 1490 1489 1487 1486 1485 1486 1486 1486 1486 1485 1485 1485 1485 1487 1489 1491 1491 1492 1493 1495 1497 1498 1500 1502 1504 1507 1509 1511 1513 1515 1518
1485 1485 1484 1483 1483 1483 1482 1481 1482 1482 1481 1481 1482 1483 1481 1477 1477 1477 1477 1478 1478 1478 1477 1478 1478 1480 1482 1484 1485 1486 1488 1489 1491 1493 1495 1497 1499 1501 1504 1506 1508 1510 1513
1479 1478 1477 1476 1475 1474 1474 1473 1474 1474 1474 1473 1473 1473 1474 1473 1473 1471 1472 1472 1472 1472 1471 1472 1472 1474 1476 1478 1479 1480 1482 1483 1484 1486 1489 1491 1493 1496 1498 1500 1503 1505 1507
1472 1470 1469 1468 1467 1467 1466 1466 1466 1466 1465 1465 1466 1466 1466 1466 1466 1466 1465 1466 1467 1467 1467 1467 1468 1469 1471 1473 1474 1475 1476 1477 1478 1480 1482 1485 1487 1490 1492 1494 1497 1499 1501
1465 1463 1462 1461 1460 1459 1459 1458 1458 1458 1458 1458 1458 1459 1460 1460 1459 1460 1460 1461 1462 1463 1464 1464 1464 1465 1467 1468 1470 1471 1471 1472 1474 1475 1477 1479 1481 1484 1486 1488 1491 1493 1494
1458 1456 1455 1454 1453 1453 1452 1452 1452 1452 1452 1452 1453 1454 1454 1455 1455 1456 1456 1457 1458 1460 1461 1462 1463 1464 1465 1466 1467 1468 1469 1470 1471 1472 1473 1475 1476 1478 1481 1483 1484 1486 1488
1452 1450 1448 1447 1447 1446 1447 1447 1447 1448 1448 1449 1449 1450 1451 1451 1452 1453 1454 1455 1456 1458 1459 1461 1462 1463 1464 1465 1466 1467 1467 1467 1468 1468 1469 1471 1472 1474 1476 1477 1479 1480 1482
1447 1444 1442 1441 1441 1441 1442 1442 1443 1444 1445 1446 1447 1448 1449 1450 1450 1451 1452 1454 1456 1457 1459 1461 1462 1463 1464 1464 1465 1465 1465 1465 1465 1466 1467 1468 1469 1470 1471 1472 1473 1474 1475
1443 1440 1437 1436 1435 1436 1437 1438 1440 1441 1443 1444 1445 1446 1448 1449 1450 1451 1452 1453 1455 1457 1459 1461 1462 1463 1463 1463 1463 1463 1463 1463 1463 1463 1464 1465 1465 1466 1467 1468 1468 1469 1470
1441 1437 1434 1432 1431 1431 1433 1434 1436 1438 1440 1442 1444 1445 1447 1448 1449 1450 1452 1453 1455 1457 1459 1461 1462 1462 1462 1462 1462 1462 1462 1461 1461 1461 1461 1462 1462 1462 1463 1463 1464 1464 1464
1439 1436 1433 1430 1429 1428 1429 1431 1433 1435 1437 1440 1442 1444 1446 1448 1449 1451 1452 1454 1455 1457 1458 1460 1462 1462 1462 1462 1462 1461 1461 1461 1460 1460 1460 1460 1460 1459 1459 1460 1460 1460 1459
1439 1436 1433 1430 1428 1428 1428 1429 1432 1434 1437 1440 1442 1444 1446 1448 1450 1451 1453 1454 1456 1457 1459 1460 1462 1463 1463 1463 1463 1462 1462 1461 1461 1460 1459 1459 1458 1457 1456 1456 1456 1455 1454
1441 1437 1434 1432 1429 1429 1429 1430 1432 1434 1437 1440 1443 1446 1448 1450 1451 1453 1454 1456 1457 1459 1461 1462 1463 1464 1464 1464 1464 1463 1463 1462 1461 1460 1459 1458 1457 1456 1454 1453 1452 1451 1449
1442 1440 1437 1434 1432 1432 1432 1433 1435 1437 1440 1443 1445 1448 1450 1452 1454 1455 1457 1458 1460 1462 1463 1464 1465 1465 1465 1465 1465 1464 1464 1463 1462 1461 1460 1458 1456 1455 1453 1451 1449 1447 1444
1444 1442 1440 1438 1437 1436 1437 1438 1440 1443 1445 1447 1449 1452 1454 1455 1457 1458 1460 1462 1463 1464 1465 1466 1466 1466 1467 1467 1467 1465 1464 1463 1462 1462 1460 1458 1456 1454 1451 1449 1446 1444 1441
1445 1444 1443 1442 1441 1442 1443 1444 1446 1448 1450 1452 1454 1456 1457 1459 1460 1462 1463 1464 1465 1466 1467 1468 1468 1469 1469 1469 1468 1467 1465 1464 1463 1462 1460 1458 1455 1453 1451 1448 1445 1442 1438
1445 1445 1445 1445 1445 1446 1447 1448 1450 1452 1453 1455 1457 1459 1460 1462 1464 1465 1465 1466 1467 1468 1469 1469 1469 1470 1470 1470 1469 1468 1467 1466 1464 1463 1460 1458 1455 1452 1450 1447 1444 1440 1437
1444 1445 1446 1447 1448 1449 1450 1452 1453 1455 1456 1458 1460 1462 1463 1464 1466 1467 1467 1468 1469 1470 1471 1471 1471 1471 1471 1471 1470 1469 1467 1465 1464 1463 1461 1458 1455 1452 1450 1447 1444 1440 1436
1442 1444 1446 1448 1450 1451 1453 1454 1456 1457 1458 1460 1462 1463 1464 1465 1467 1468 1468 1469 1470 1471 1472 1472 1472 1472 1472 1471 1470 1469 1467 1466 1464 1463 1462 1460 1457 1453 1450 1448 1444 1440 1436